Location: Bernadets
(43.3537°N, 0.3167°E)
Time: 13:17:17
(UTC+00:00)

Daily predictions for brighter satellites

Satellite Brightness Start Highest point End
(mag) Time Altitude Azimuth Time Altitude Azimuth Time Altitude Azimuth
BREEZE M DEB (TANK) 3.8 17:10:08 10° WNW 17:13:38 88° S 17:34:47 10° ESE
Cosmos 1844 Rocket 4.0 17:24:09 10° N 17:28:03 19° NE 17:31:56 10° E
USA 215 3.6 17:23:39 10° NE 17:30:09 68° NW 17:36:37 10° WSW
USA 229 DEB 4.4 17:25:54 10° S 17:31:14 29° ESE 17:36:48 10° NE
USA 229 4.4 17:26:03 10° S 17:31:20 29° ESE 17:36:53 10° NE
Cosmos 1934 Rocket 4.3 17:27:13 10° SSE 17:32:55 44° E 17:38:37 10° NNE
Lacrosse 4 Rocket 2.6 17:29:45 10° N 17:33:21 25° NE 17:37:00 10° ESE
Cosmos 389 Rocket 4.0 17:31:15 10° SSW 17:34:26 38° WNW 17:37:41 10° N
NOAA 6 4.4 17:29:49 10° S 17:35:00 75° WSW 17:40:13 10° NNW
Cosmos 1953 2.4 17:31:08 10° S 17:35:10 86° W 17:39:16 10° N
Meteor 1-21 Rocket 4.4 17:29:20 10° N 17:35:16 87° E 17:41:12 10° S
OE (NEXTSAT) 4.3 17:32:42 10° WSW 17:36:06 76° SSE 17:39:32 10° ENE
NOSS 8 (F) 4.2 17:34:14 10° SSW 17:37:50 73° SE 17:40:50 10° NE
Okean O Rocket 2.1 17:36:12 10° SE 17:40:11 37° ENE 17:44:12 10° N
H-2A R/B 2.2 17:36:12 10° SSE 17:41:28 57° ENE 17:46:49 10° N
Cosmos 332 Rocket 4.4 17:40:36 10° SSE 17:45:03 36° ESE 17:49:30 10° NE
deb Chang Zheng 4 3.5 17:40:59 10° SSE 17:45:07 63° ENE 17:49:18 10° N
Cosmos 2278 4.4 17:40:04 10° SW 17:45:38 57° WNW 17:51:17 10° NNE
ATLAS 3B R/B 4.3 17:42:26 10° W 17:48:00 28° NW 17:53:49 10° NNE
X-37B 0.3 17:45:11 10° WNW 17:48:06 83° NNE 17:50:32 14° ESE
Cosmos 1602 Rocket 4.4 17:48:03 10° NNE 17:51:45 26° ENE 17:55:24 10° SE
SL-8 R/B 4.2 17:47:04 10° W 17:51:46 54° NNW 17:56:02 13° ENE
ATLAS 5 CENTAUR R/B 3.1 17:49:26 10° WSW 17:52:53 29° NW 17:56:44 10° NNE
NOSS 3-1 (A) 3.6 17:48:50 10° S 17:53:36 39° ESE 17:59:04 10° NE
COSMO-SKYMED 1 2.6 17:53:12 10° NNE 17:57:30 59° E 18:01:47 10° S
Cosmos 1300 2.6 17:53:51 10° S 17:57:36 63° E 18:01:23 10° NNE
SL-16 R/B 2.2 17:52:15 10° SSW 17:57:52 70° ESE 18:03:31 10° NNE
Cosmos 1269 Rocket 4.3 17:53:36 10° NNW 17:58:53 75° WSW 18:04:09 10° SSE
Okean 1-7 Rocket 3.5 17:54:39 10° N 17:59:05 68° E 18:03:30 10° SSE
Cosmos 2123 Rocket 4.0 17:56:23 10° N 18:02:44 74° E 18:08:59 10° SSE
USA 267 3.3 17:57:02 10° SE 18:03:33 88° SW 18:10:09 10° NW
Okean-O 4.1 18:02:47 17° ENE 18:03:42 18° ENE 18:06:40 10° NNE
CZ-4 R/B 2.2 18:02:28 10° SE 18:05:57 29° ENE 18:09:30 10° N
BREEZE-M R/B 3.0 18:03:00 10° WNW 18:06:28 46° NNE 18:09:11 19° E
FALCON 9 DEB 4.3 18:05:50 10° S 18:08:03 20° SE 18:08:22 19° SE
Cosmos 2322 Rocket 2.1 18:04:32 10° SSW 18:10:04 66° ESE 18:15:38 10° NNE
Cosmos 371 Rocket 3.5 18:06:29 10° SSW 18:11:19 73° WNW 18:16:14 10° NNE
NOSS 2-3 (D) 3.4 18:09:44 10° SW 18:13:44 86° WNW 18:18:20 10° NE
SJ-11-01 4.2 18:10:41 10° SSE 18:15:20 71° ENE 18:20:03 10° N
Cosmos 2219 Rocket 3.7 18:13:29 10° SE 18:15:44 16° ESE 18:15:44 16° ESE
NOSS 3-1 (C) 3.3 18:12:33 10° SW 18:17:46 78° NW 18:23:55 10° NE
SL-08 RB Rocket 3.9 18:13:31 10° SE 18:17:54 49° ENE 18:22:21 10° N
Cosmos 2251 Rocket 3.8 18:13:36 10° N 18:18:39 46° ENE 18:23:32 11° SE
Cosmos 2360 Rocket 2.4 18:14:23 10° S 18:19:45 47° ESE 18:25:09 10° NE
Cosmos 1844 4.3 18:15:25 10° NNW 18:20:46 37° NE 18:23:55 21° ESE
Cosmos 1758 Rocket 4.1 18:17:20 10° N 18:21:19 35° ENE 18:24:09 17° SE
Cosmos 2228 3.8 18:19:21 10° SSE 18:23:11 30° E 18:27:01 10° NNE
Tiangong 1.3 18:20:28 10° W 18:23:38 60° S 18:24:40 36° ESE
H-2A R/B 2.5 18:19:38 10° SSE 18:23:50 56° ENE 18:27:55 10° N
NOSS 2-3 (C) 3.9 18:22:21 10° SW 18:26:20 63° NW 18:30:52 11° NNE
Cosmos 1626 Rocket 3.5 18:22:22 10° N 18:26:43 89° WSW 18:31:02 10° S
Cosmos 2333 Rocket 3.1 18:22:17 10° SSE 18:26:54 26° ESE 18:27:35 26° E
ARGOS 3.1 18:21:30 10° SSE 18:26:54 86° ENE 18:32:22 10° NNW
SWARM C 4.4 18:24:34 10° S 18:27:49 64° E 18:31:06 10° N
SWARM A 4.1 18:24:46 10° S 18:28:02 64° E 18:31:20 10° N
Feng Yun 1-1 Rocket 4.2 18:23:34 10° SSE 18:29:05 72° ENE 18:34:50 10° N
CZ-4B R/B 4.0 18:27:34 10° S 18:33:07 57° WSW 18:38:42 10° NNW
Meteor 1-4 Rocket 2.4 18:30:32 10° SSW 18:34:01 81° W 18:37:29 10° N
Cosmos 220 Rocket 3.9 18:31:57 10° SSW 18:36:22 83° ESE 18:40:47 10° NNE
CZ-4C R/B 3.3 18:33:50 10° N 18:37:08 60° WNW 18:40:19 10° SSW
Cosmos 44 3.4 18:33:12 10° SSW 18:38:38 78° ESE 18:42:36 19° NE
In-Cosmos 22 Rocket 3.9 18:34:24 10° N 18:39:44 70° ENE 18:45:01 10° SSE
Cosmos 2263 Rocket 4.2 18:35:01 10° NW 18:39:45 29° WSW 18:44:29 10° SSW
CZ-2C R/B 3.7 18:44:26 10° SW 18:45:21 11° SSW 18:46:16 10° S
CSL-04 Debris 4.5 18:44:16 35° ESE 18:45:48 43° ENE 18:50:54 10° N
Iridium 4 Rocket 4.4 18:41:18 10° NNW 18:45:49 47° W 18:50:44 10° SSW
Cosmos 614 Rocket 3.8 18:41:53 10° NNW 18:47:00 85° ENE 18:51:33 13° SSE
Cosmos 1605 Rocket 4.1 18:42:01 10° SSW 18:48:18 78° W 18:54:42 10° N
YAOGAN 1 2.4 18:44:05 10° SSE 18:48:24 86° E 18:52:46 10° NNW
CZ-2C R/B 3.3 18:43:00 10° N 18:48:30 59° WNW 18:53:52 10° SSW
IRS-1C Rocket 4.0 18:45:20 16° SSE 18:49:27 62° ENE 18:54:40 10° N
Cosmos 2322 4.2 18:44:39 10° S 18:49:21 36° ESE 18:49:21 36° ESE
Cosmos 2344 4.3 18:41:34 10° NW 18:50:53 79° NE 19:04:00 10° SE
Cosmos 1892 2.5 18:48:15 10° N 18:52:02 88° E 18:53:16 41° S
H-2A R/B 1.9 18:51:01 44° NE 18:52:07 63° ESE 18:56:17 10° S
CSL-04 Rocket 3.9 18:56:00 44° ESE 18:57:01 49° ENE 19:02:21 10° N
Cosmos 1447 Rocket 4.4 18:52:42 10° N 18:58:52 89° W 19:05:02 10° S
Cosmos 1408 3.1 19:05:42 10° NNW 19:08:49 54° WNW 19:08:49 54° WNW
Lacrosse 4 Rocket 2.8 19:08:05 10° NW 19:12:07 38° WSW 19:14:55 18° S
Cosmos 1844 Rocket 2.7 19:07:00 10° NNW 19:12:36 77° WSW 19:15:10 33° SSE
Orbus 7S? 3.7 19:08:33 10° NW 19:16:03 80° NE 19:16:03 80° NE
Okean O Rocket 4.2 19:13:21 10° SW 19:16:39 21° W 19:19:57 10° NW
USA 229 DEB 4.1 19:15:25 10° SW 19:21:42 58° NW 19:26:38 19° NNE
USA 229 4.1 19:15:31 10° SW 19:21:48 58° NW 19:26:42 19° NNE
IRS-P2 Rocket 4.4 19:22:39 81° SE 19:22:53 85° ENE 19:28:07 10° NNW
X-37B 3.5 19:21:08 10° W 19:21:56 15° WSW 19:21:56 15° WSW
Cosmos 2278 Rocket 3.9 19:32:11 10° N 19:34:34 21° NNE 19:34:34 21° NNE
Cosmos 2333 4.3 19:32:55 10° SSW 19:38:32 72° WNW 19:39:18 63° NNW
Cosmos 2346 Rocket 4.4 19:32:14 10° N 19:38:12 78° NE 19:38:12 78° NE
Okean-O 3.6 19:40:23 46° WNW 19:40:23 46° WNW 19:44:06 10° NNW
CZ-4 R/B 3.7 19:37:39 10° SSW 19:40:55 23° W 19:44:15 10° NW
SL-16 R/B 4.5 19:38:17 10° W 19:42:32 21° NW 19:46:47 10° N
NOSS 3-1 (A) 4.5 19:39:24 10° WSW 19:44:26 38° NW 19:47:26 24° N
Cosmos 2322 Rocket 4.4 19:50:21 10° W 19:54:36 22° NW 19:58:54 10° N
Cosmos 2219 Rocket 3.5 19:54:47 10° SSW 19:57:34 30° SW 19:57:34 30° SW
CENTAUR R/B 4.1 19:53:33 10° NNW 19:59:45 31° NNE 19:59:45 31° NNE
Cosmos 407 Rocket 4.5 19:56:02 10° NNW 20:00:19 45° WNW 20:00:19 45° WNW
Cosmos 2360 Rocket 4.0 19:59:06 10° WSW 20:03:56 29° NW 20:07:53 14° N
Cosmos 2333 Rocket 3.2 20:05:24 10° SW 20:09:42 42° W 20:09:42 42° W
